This is the latest recevied weather packets stored in our database for station/object OE5OVL-13. If no packets are shown the sender has not sent any weather packets the latest 10 day(s).
| Time | Temp. | Humidity | Pressure | Rain* | Wind** | Luminosity | Snow |
|---|---|---|---|---|---|---|---|
| 1777715206 | 21.67° C | 41% | 730.7 hPa | 0 mm | - | - | - |
| 1777714294 | 20.56° C | 42% | 729.8 hPa | 0 mm | - | - | - |
| 1777713383 | 20° C | 43% | 729 hPa | 0 mm | - | - | - |
| 1777712471 | 19.44° C | 47% | 728.2 hPa | 0 mm | - | - | - |
| 1777711559 | 18.33° C | 54% | 726.9 hPa | 0 mm | - | - | - |
| 1777710647 | 17.22° C | 56% | 726 hPa | 0 mm | - | - | - |
| 1777709736 | 16.67° C | 59% | 725.1 hPa | 0 mm | - | - | - |
| 1777708824 | 16.11° C | 62% | 724.3 hPa | 0 mm | - | - | - |
| 1777707912 | 14.44° C | 63% | 722.8 hPa | 0 mm | - | - | - |
| 1777707000 | 13.89° C | 63% | 721.7 hPa | 0 mm | - | - | - |
| 1777706089 | 12.78° C | 63% | 720.9 hPa | 0 mm | - | - | - |
| 1777705177 | 12.22° C | 65% | 720.3 hPa | 0 mm | - | - | - |
| 1777704265 | 12.22° C | 66% | 719.7 hPa | 0 mm | - | - | - |
| 1777665972 | 13.33° C | 53% | 721.5 hPa | 0 mm | - | - | - |
| 1777665060 | 13.89° C | 51% | 722 hPa | 0 mm | - | - | - |
| 1777664148 | 14.44° C | 51% | 722.4 hPa | 0 mm | - | - | - |
| 1777663236 | 15° C | 50% | 723.4 hPa | 0 mm | - | - | - |
| 1777662325 | 16.11° C | 47% | 724.3 hPa | 0 mm | - | - | - |
| 1777661413 | 16.67° C | 46% | 725.2 hPa | 0 mm | - | - | - |
| 1777660501 | 17.78° C | 44% | 726 hPa | 0 mm | - | - | - |
| 1777659590 | 18.89° C | 42% | 727.4 hPa | 0 mm | - | - | - |
| 1777658678 | 20° C | 39% | 729.1 hPa | 0 mm | - | - | - |
| 1777657766 | 22.22° C | 32% | 731.6 hPa | 0 mm | - | - | - |
| 1777656854 | 25° C | 28% | 734.5 hPa | 0 mm | - | - | - |
| 1777655942 | 31.67° C | 19% | 742.4 hPa | 0 mm | - | - | - |
* Rain latest hour (hover to see other rain measurements)
** Current wind speed in m/s (hover to see current wind gust speed)